Regional Weather Roundup
Issued by NWS

Home | Current Version | Previous Version | Text Only | Print | Product List | Glossary On
Versions: 1 2 3 4 5 6 7 8 9 10 11 12 13 14 15 16 17 18 19 20 21 22 23 24 25 26 27 28 29 30 31 32 33 34 35 36 37 38 39 40 41 42 43 44 45 46 47 48 49 50
000
ASUS46 KSEW 222310
RWRWA

WASHINGTON REGIONAL WEATHER ROUNDUP
NATIONAL WEATHER SERVICE SEATTLE WA
400 PM PDT FRI MAY 22 2015

NOTE:"FAIR" INDICATES FEW OR NO CLOUDS BELOW 12,000 FEET WITH NO
SIGNIFICANT WEATHER AND/OR OBSTRUCTIONS TO VISIBILITY.

WAZ505-507>509-230000-
SEATTLE, TACOMA, EVERETT, AND VICINITY

CITY           SKY/WX    TMP DP  RH WIND       PRES   REMARKS
EVERETT        CLOUDY    60  50  69 S12       30.01S
BOEING FIELD   CLOUDY    63  51  65 S6        30.01S
RENTON         CLOUDY    62  51  67 VRB7      30.00S
SEATAC AIRPORT CLOUDY    60  51  72 W8        30.02S
JBLM-MCCHORD   CLOUDY    60  53  79 W7        30.01S
PUYALLUP       DRIZZLE   59  55  88 CALM      30.02S
BREMERTON      CLOUDY    55  52  88 S13       30.04R
JBLM-FT LEWIS  CLOUDY    60  52  75 SW9       30.01S
TACOMA NARROWS CLOUDY    58  49  72 W7        30.03R
$$

WAZ001-503-506-510-514-515-230000-
NORTH INTERIOR

CITY           SKY/WX    TMP DP  RH WIND       PRES   REMARKS
BELLINGHAM     MOSUNNY   60  53  77 S9G21     29.97S
FRIDAY HARBOR  MOSUNNY   62  52  69 SE10      29.99R
EASTSOUND      SUNNY     63  52  67 S13G20    29.95S
PORT ANGELES   PTSUNNY   55  50  83 NW12G17   29.99S
PORT TOWNSEND  PTSUNNY   61  54  77 E9        29.99R
NAS WHIDBEY    PTSUNNY   60  57  89 SW9       30.03S
ARLINGTON      CLOUDY    63  50  63 S9        30.01R
BURLINGTON     CLOUDY    61  55  82 VRB6      29.99S
$$

WAZ020-022-039-040-504-511-512-230000-
SOUTHWEST INTERIOR

CITY           SKY/WX    TMP DP  RH WIND       PRES   REMARKS
SHELTON        LGT RAIN  55  51  86 SW13      29.99S
OLYMPIA        PTSUNNY   59  50  72 W9        30.02S
CHEHALIS       CLOUDY    63  52  67 VRB7G15   30.03R
KELSO          CLOUDY    57  48  72 W8        30.09S
VANCOUVER      CLOUDY    58  52  80 CALM      30.04S
SCAPPOOSE, OR  CLOUDY    60  52  74 E9        30.03S
PORTLAND, OR   CLOUDY    58  53  84 SW6       30.05R
$$

WAZ021-516-517-230000-
WASHINGTON COAST

CITY           SKY/WX    TMP DP  RH WIND       PRES   REMARKS
FORKS          CLOUDY    55  52  89 SW7       30.02S FOG
HOQUIAM        CLOUDY    55  51  86 SW12      30.04F FOG
ASTORIA, OR    CLOUDY    55  52  89 VRB6      30.06S FOG
$$

WAZ019-023-024-040-518-519-230000-
CASCADE MOUNTAINS AND COLUMBIA GORGE

CITY           SKY/WX    TMP DP  RH WIND       PRES   REMARKS
TROUTDALE, OR  CLOUDY    59  53  80 CALM      30.04R
THE DALLES, OR CLOUDY    69  50  50 NW20G28   29.89R
$$

WAZ026-027-041>044-520-521-230000-
EAST SLOPES

CITY           SKY/WX    TMP DP  RH WIND       PRES   REMARKS
OMAK           PTSUNNY   82  37  20 SE7       29.78S
WENATCHEE      MOSUNNY   80  47  31 W6        29.80S
ELLENSBURG     MOSUNNY   78  54  43 NW21G26   29.84S
YAKIMA         MOSUNNY   78  54  43 VRB3      29.83F
$$

WAZ028-034-035-230000-
COLUMBIA BASIN

CITY           SKY/WX    TMP DP  RH WIND       PRES   REMARKS
EPHRATA        SUNNY     86  47  25 W13       29.77F
MOSES LAKE     MOSUNNY   85  47  26 W10G16    29.78F
PASCO          PTSUNNY   84  53  34 W15       29.78S
HERMISTON, OR  CLOUDY    74  54  49 SW10      29.82R
$$

WAZ036>038-230000-
NORTHEAST WASHINGTON

CITY           SKY/WX    TMP DP  RH WIND       PRES   REMARKS
SPOKANE GEIGER TSTM      69  51  52 S13       29.82R
SPOKANE FELTS  PTSUNNY   77  40  26 NE7       29.80R
FAIRCHILD AFB  TSTM      70  54  56 E20G28    29.82R
COEURDALENE,ID PTSUNNY   73  50  43 W8        29.79F
DEER PARK      PTSUNNY   78  42  27 N8        29.80S
$$

WAZ029>033-230000-
SOUTHEAST WASHINGTON

CITY           SKY/WX    TMP DP  RH WIND       PRES   REMARKS
PULLMAN        TSTM      65  48  54 NE20      29.85R
LEWISTON, ID   PTSUNNY   79  44  28 N12       29.76S
WALLA WALLA    CLOUDY    73  56  54 SE9       29.83S
PENDLETON, OR  CLOUDY    67  56  67 S12       29.85S
$$


USA.gov is the U.S. government's official web portal to all federal, state and local government web resources and services.